ENT524T LEBL-LEMH

Flight info

Callsign ENT524T
Flight time 0h 34m
Altitude 19000
Route DUNES Q700 SARGO
Aircraft B738/M-SDE2E3FGHIRWXY/LB1

Departure

Time 2026-05-06 20:00
Airport Josep Tarradellas Barcelona-El Prat Airport (LEBL)

Arrival

Time 2026-05-06 20:35
Airport Menorca Airport (LEMH)
Time Latitude Longitude Altitude Speed Heading
2026-05-06 19:29 41.29201 2.08059 22 ft 0 kts 155°
2026-05-06 19:47 41.29213 2.08053 22 ft 2 kts 154°
2026-05-06 19:47 41.29225 2.08045 22 ft 2 kts 155°
2026-05-06 19:48 41.29239 2.08036 22 ft 2 kts 155°
2026-05-06 19:48 41.29253 2.08029 22 ft 2 kts 183°
2026-05-06 19:48 41.29267 2.08035 22 ft 2 kts 214°
2026-05-06 19:48 41.29275 2.08046 22 ft 0 kts 241°
2026-05-06 19:49 41.29278 2.08054 22 ft 1 kts 246°
2026-05-06 19:49 41.29279 2.08056 22 ft 0 kts 245°
2026-05-06 19:52 41.29278 2.08053 22 ft 1 kts 245°
2026-05-06 19:52 41.29273 2.08039 21 ft 1 kts 245°
2026-05-06 19:53 41.29270 2.08030 21 ft 0 kts 245°
2026-05-06 19:53 41.29265 2.08015 21 ft 4 kts 245°
2026-05-06 19:53 41.29259 2.07958 22 ft 8 kts 295°
2026-05-06 19:53 41.29324 2.07904 22 ft 13 kts 338°
2026-05-06 19:54 41.29415 2.07858 21 ft 9 kts 355°
2026-05-06 19:54 41.29470 2.07931 22 ft 14 kts 64°
2026-05-06 19:54 41.29518 2.08075 21 ft 19 kts 66°
2026-05-06 19:54 41.29563 2.08213 21 ft 0 kts 74°
2026-05-06 19:55 41.29568 2.08244 22 ft 6 kts 81°
2026-05-06 19:55 41.29579 2.08323 21 ft 11 kts 73°
2026-05-06 19:55 41.29617 2.08442 22 ft 16 kts 65°
2026-05-06 19:55 41.29563 2.08552 22 ft 17 kts 155°
2026-05-06 19:56 41.29438 2.08627 22 ft 22 kts 156°
2026-05-06 19:56 41.29282 2.08720 22 ft 27 kts 155°
2026-05-06 19:56 41.29097 2.08833 21 ft 31 kts 155°
2026-05-06 19:56 41.28957 2.08933 21 ft 14 kts 122°
2026-05-06 19:57 41.28978 2.09074 22 ft 18 kts 66°
2026-05-06 19:57 41.29037 2.09244 22 ft 22 kts 65°
2026-05-06 19:57 41.29109 2.09452 21 ft 26 kts 65°
2026-05-06 19:57 41.29190 2.09690 22 ft 30 kts 65°
2026-05-06 19:58 41.29261 2.09894 21 ft 9 kts 66°
2026-05-06 19:58 41.29249 2.09984 21 ft 8 kts 94°
2026-05-06 19:58 41.29249 2.10084 22 ft 13 kts 97°
2026-05-06 19:58 41.29233 2.10231 22 ft 17 kts 98°
2026-05-06 19:59 41.29206 2.10267 21 ft 6 kts 207°
2026-05-06 19:59 41.29191 2.10236 22 ft 0 kts 243°
2026-05-06 19:59 41.29181 2.10208 22 ft 11 kts 245°
2026-05-06 20:00 41.29110 2.10004 22 ft 45 kts 245°
2026-05-06 20:00 41.28857 2.09263 22 ft 128 kts 245°
2026-05-06 20:00 41.28413 2.07956 311 ft 167 kts 246°
2026-05-06 20:00 41.27905 2.06569 1062 ft 175 kts 237°
2026-05-06 20:01 41.26989 2.05479 1797 ft 186 kts 207°
2026-05-06 20:01 41.25648 2.04894 2175 ft 223 kts 187°
2026-05-06 20:01 41.24083 2.05244 2997 ft 238 kts 159°
2026-05-06 20:01 41.22564 2.05862 4311 ft 232 kts 173°
2026-05-06 20:02 41.20991 2.05890 5440 ft 233 kts 183°
2026-05-06 20:02 41.19389 2.05793 6525 ft 236 kts 184°
2026-05-06 20:02 41.17780 2.05618 7594 ft 239 kts 193°
2026-05-06 20:02 41.16235 2.04800 8493 ft 249 kts 210°
2026-05-06 20:03 41.14708 2.03703 9533 ft 256 kts 209°
2026-05-06 20:03 41.13149 2.02641 10605 ft 260 kts 209°
2026-05-06 20:03 41.11551 2.01553 11719 ft 264 kts 209°
2026-05-06 20:03 41.09918 2.00439 12821 ft 268 kts 209°
2026-05-06 20:04 41.08261 1.99310 13912 ft 273 kts 210°
2026-05-06 20:04 41.06517 1.98358 14904 ft 284 kts 197°
2026-05-06 20:04 41.04491 1.97864 15363 ft 313 kts 191°
2026-05-06 20:04 41.02275 1.97382 15909 ft 336 kts 192°
2026-05-06 20:05 40.99873 1.96790 16221 ft 364 kts 193°
2026-05-06 20:05 40.97359 1.96195 16869 ft 379 kts 189°
2026-05-06 20:05 40.94680 1.96238 17630 ft 392 kts 170°
2026-05-06 20:05 40.92166 1.97600 18503 ft 400 kts 147°
2026-05-06 20:06 40.90157 2.00074 18936 ft 401 kts 129°
2026-05-06 20:06 40.88515 2.03157 18965 ft 406 kts 124°
2026-05-06 20:06 40.86881 2.06230 18966 ft 406 kts 127°
2026-05-06 20:06 40.85181 2.09198 18966 ft 405 kts 128°
2026-05-06 20:07 40.83445 2.12175 18966 ft 405 kts 128°
2026-05-06 20:07 40.81738 2.15104 18965 ft 405 kts 128°
2026-05-06 20:07 40.80071 2.18056 18961 ft 405 kts 123°
2026-05-06 20:07 40.78857 2.21405 18972 ft 405 kts 108°
2026-05-06 20:08 40.78090 2.25008 18965 ft 406 kts 103°
2026-05-06 20:08 40.77647 2.28640 18960 ft 405 kts 91°
2026-05-06 20:08 40.77833 2.32314 18975 ft 403 kts 81°
2026-05-06 20:08 40.78272 2.35992 18965 ft 403 kts 80°
2026-05-06 20:09 40.78677 2.39613 18965 ft 403 kts 81°
2026-05-06 20:09 40.79060 2.43314 18965 ft 403 kts 81°
2026-05-06 20:09 40.79436 2.46949 18965 ft 403 kts 81°
2026-05-06 20:09 40.79821 2.50633 18966 ft 403 kts 81°
2026-05-06 20:10 40.80198 2.54264 18966 ft 404 kts 81°
2026-05-06 20:10 40.80579 2.57957 18965 ft 403 kts 81°
2026-05-06 20:10 40.80954 2.61603 18966 ft 403 kts 81°
2026-05-06 20:10 40.81332 2.65294 18965 ft 403 kts 81°
2026-05-06 20:11 40.81702 2.68920 18966 ft 404 kts 81°
2026-05-06 20:11 40.82078 2.72613 18966 ft 403 kts 81°
2026-05-06 20:11 40.82449 2.76274 18966 ft 403 kts 81°
2026-05-06 20:11 40.82818 2.79919 18966 ft 403 kts 81°
2026-05-06 20:12 40.83189 2.83607 18966 ft 403 kts 81°
2026-05-06 20:12 40.83557 2.87279 18966 ft 404 kts 81°
2026-05-06 20:12 40.83922 2.90917 18966 ft 403 kts 81°
2026-05-06 20:12 40.84288 2.94591 18967 ft 404 kts 81°
2026-05-06 20:13 40.84653 2.98265 18969 ft 404 kts 81°
2026-05-06 20:13 40.85016 3.01931 18981 ft 404 kts 81°
2026-05-06 20:13 40.85372 3.05599 18990 ft 404 kts 83°
2026-05-06 20:13 40.85476 3.09302 18993 ft 405 kts 91°
2026-05-06 20:14 40.85120 3.12982 18993 ft 407 kts 102°
2026-05-06 20:14 40.84194 3.16527 18995 ft 408 kts 114°
2026-05-06 20:14 40.82807 3.19801 18993 ft 408 kts 123°
2026-05-06 20:14 40.81045 3.22719 18994 ft 407 kts 134°
2026-05-06 20:15 40.79036 3.25303 18993 ft 407 kts 137°
2026-05-06 20:15 40.76997 3.27912 18990 ft 407 kts 135°
2026-05-06 20:15 40.75014 3.30514 18991 ft 407 kts 135°
2026-05-06 20:15 40.72997 3.33154 18991 ft 407 kts 135°
2026-05-06 20:16 40.70989 3.35765 18992 ft 407 kts 136°
2026-05-06 20:16 40.68981 3.38372 18992 ft 407 kts 136°
2026-05-06 20:16 40.66966 3.40985 18993 ft 408 kts 136°
2026-05-06 20:16 40.64934 3.43615 18993 ft 408 kts 136°
2026-05-06 20:17 40.62937 3.46199 18992 ft 408 kts 136°
2026-05-06 20:17 40.60903 3.48827 18993 ft 408 kts 136°
2026-05-06 20:17 40.58890 3.51425 18993 ft 408 kts 136°
2026-05-06 20:17 40.56879 3.54019 18992 ft 407 kts 136°
2026-05-06 20:18 40.54867 3.56611 18993 ft 407 kts 136°
2026-05-06 20:18 40.52831 3.59232 18993 ft 406 kts 136°
2026-05-06 20:18 40.50818 3.61820 18993 ft 407 kts 136°
2026-05-06 20:18 40.48815 3.64392 18993 ft 407 kts 136°
2026-05-06 20:19 40.46802 3.66977 18993 ft 406 kts 136°
2026-05-06 20:19 40.44778 3.69573 18993 ft 407 kts 136°
2026-05-06 20:19 40.42746 3.72176 18993 ft 407 kts 136°
2026-05-06 20:19 40.40736 3.74750 18993 ft 407 kts 136°
2026-05-06 20:20 40.38713 3.77337 18993 ft 406 kts 136°
2026-05-06 20:20 40.36687 3.79926 18993 ft 407 kts 136°
2026-05-06 20:20 40.34673 3.82497 18993 ft 407 kts 136°
2026-05-06 20:20 40.32646 3.85082 18993 ft 407 kts 136°
2026-05-06 20:21 40.30628 3.87655 18993 ft 407 kts 136°
2026-05-06 20:21 40.28609 3.90226 18993 ft 407 kts 136°
2026-05-06 20:21 40.26557 3.92836 18994 ft 414 kts 136°
2026-05-06 20:21 40.24489 3.95464 18981 ft 421 kts 136°
2026-05-06 20:22 40.22356 3.98173 18431 ft 428 kts 136°
2026-05-06 20:22 40.20269 4.00822 17724 ft 414 kts 136°
2026-05-06 20:22 40.18234 4.03402 17014 ft 409 kts 136°
2026-05-06 20:22 40.16201 4.05976 16293 ft 408 kts 136°
2026-05-06 20:23 40.14186 4.08527 15580 ft 397 kts 136°
2026-05-06 20:23 40.12202 4.11036 14899 ft 400 kts 136°
2026-05-06 20:23 40.10245 4.13507 14187 ft 391 kts 136°
2026-05-06 20:23 40.08130 4.15658 14020 ft 378 kts 153°
2026-05-06 20:24 40.05598 4.16718 13591 ft 391 kts 175°
2026-05-06 20:24 40.03024 4.16394 13147 ft 368 kts 200°
2026-05-06 20:24 40.00837 4.14685 12888 ft 372 kts 225°
2026-05-06 20:24 39.99308 4.11986 12019 ft 376 kts 246°
2026-05-06 20:25 39.98598 4.08785 11112 ft 365 kts 259°
2026-05-06 20:25 39.97918 4.05688 10716 ft 346 kts 249°
2026-05-06 20:25 39.96894 4.02987 10555 ft 325 kts 241°
2026-05-06 20:25 39.95688 4.00568 10382 ft 306 kts 235°
2026-05-06 20:26 39.94389 3.98473 10207 ft 291 kts 230°
2026-05-06 20:26 39.92987 3.96626 9886 ft 284 kts 223°
2026-05-06 20:26 39.91367 3.95176 9490 ft 291 kts 208°
2026-05-06 20:26 39.89495 3.94225 9078 ft 289 kts 197°
2026-05-06 20:27 39.87532 3.93708 8635 ft 286 kts 188°
2026-05-06 20:27 39.85556 3.93540 8257 ft 286 kts 181°
2026-05-06 20:27 39.83562 3.93668 7877 ft 286 kts 174°
2026-05-06 20:27 39.81649 3.94110 7506 ft 280 kts 166°
2026-05-06 20:28 39.79763 3.94801 7144 ft 284 kts 162°
2026-05-06 20:28 39.77922 3.95654 6766 ft 279 kts 156°
2026-05-06 20:28 39.76210 3.96763 6405 ft 275 kts 150°
2026-05-06 20:28 39.74667 3.98217 5889 ft 277 kts 129°
2026-05-06 20:29 39.73861 4.00405 5505 ft 267 kts 98°
2026-05-06 20:29 39.73685 4.02768 5127 ft 262 kts 94°
2026-05-06 20:29 39.73433 4.05118 4742 ft 257 kts 98°
2026-05-06 20:29 39.73134 4.07359 4345 ft 247 kts 98°
2026-05-06 20:30 39.72841 4.09503 4061 ft 234 kts 98°
2026-05-06 20:30 39.72295 4.13356 3576 ft 206 kts 99°
2026-05-06 20:30 39.72044 4.15100 3378 ft 189 kts 99°
2026-05-06 20:31 39.71824 4.16731 3166 ft 174 kts 93°
2026-05-06 20:31 39.72078 4.18143 2997 ft 155 kts 53°
2026-05-06 20:31 39.72897 4.18940 2751 ft 148 kts 16°
2026-05-06 20:31 39.73907 4.19201 2581 ft 149 kts 14°
2026-05-06 20:32 39.74912 4.19499 2369 ft 147 kts 12°
2026-05-06 20:32 39.75910 4.19729 2169 ft 147 kts 10°
2026-05-06 20:32 39.76916 4.19945 1967 ft 146 kts
2026-05-06 20:32 39.77906 4.20148 1773 ft 144 kts 10°
2026-05-06 20:33 39.78896 4.20352 1575 ft 144 kts 11°
2026-05-06 20:33 39.79883 4.20554 1378 ft 144 kts 11°
2026-05-06 20:33 39.80867 4.20757 1187 ft 143 kts 10°
2026-05-06 20:33 39.81838 4.20955 998 ft 141 kts
2026-05-06 20:34 39.82807 4.21153 815 ft 142 kts 11°
2026-05-06 20:34 39.83779 4.21359 627 ft 143 kts
2026-05-06 20:34 39.84761 4.21551 436 ft 141 kts 10°
2026-05-06 20:34 39.85718 4.21751 314 ft 136 kts 10°
2026-05-06 20:35 39.86553 4.21928 309 ft 104 kts
2026-05-06 20:35 39.87086 4.22037 309 ft 37 kts
2026-05-06 20:35 39.87241 4.22070 309 ft 20 kts 10°
2026-05-06 20:35 39.87360 4.22110 309 ft 14 kts 39°
2026-05-06 20:36 39.87396 4.22217 309 ft 12 kts 88°
2026-05-06 20:36 39.87373 4.22311 308 ft 10 kts 140°
2026-05-06 20:36 39.87308 4.22320 309 ft 9 kts 187°
2026-05-06 20:36 39.87240 4.22307 308 ft 11 kts 189°
2026-05-06 20:37 39.87154 4.22289 309 ft 14 kts 189°
2026-05-06 20:37 39.87051 4.22267 309 ft 15 kts 188°
2026-05-06 20:37 39.86964 4.22255 308 ft 8 kts 172°
2026-05-06 20:37 39.86923 4.22319 309 ft 11 kts 100°
2026-05-06 20:38 39.86872 4.22396 309 ft 13 kts 174°
2026-05-06 20:38 39.86774 4.22380 309 ft 15 kts 189°
2026-05-06 20:38 39.86661 4.22357 309 ft 16 kts 189°
2026-05-06 20:38 39.86602 4.22347 309 ft 3 kts 171°
2026-05-06 20:39 39.86580 4.22385 309 ft 7 kts 107°
2026-05-06 20:39 39.86575 4.22432 309 ft 0 kts 98°
2026-05-06 20:39 39.86574 4.22436 309 ft 0 kts 98°